Tracking 20040 objects as of 18-Nov-2019
Live streaming from Space Station
objects crossing your sky now

SL-8 DEB

Track SL-8 DEB now!
10-day predictions


NORAD ID: 21177
Int'l Code: 1991-009AQ
Perigee: 1,511.4 km
Apogee: 1,745.1 km
Inclination: 74.1 °
Period: 118.7 minutes
Semi major axis: 7999 km
RCS: 0.199 m2 (medium)
Launch date: February 12, 1991
Source: Commonwealth of Independent States (former USSR) (CIS)
Launch site: PLESETSK MISSILE AND SPACE COMPLEX (PKMTR)

Note: This is SATELLITE DEBRIS
aabbcc
Your satellite tracking list
Your tracking list is empty




NASA's NSSDC Master Catalog

Two Line Element Set (TLE):
1 21177U 91009AQ  19321.76217185 +.00000046 +00000-0 +61152-3 0  9998
2 21177 074.1056 181.8953 0146063 228.7576 197.8843 12.13473641271401
Source of the keplerian elements: AFSPC